STARLINK-35047, 65806

Orbit data source: Space-Track

STARLINK-35047, 65806 is a payload satellite owned by SpaceX/Seattle (US) in SSO that was launched on Fri, 26 Sep 2025 UTC via an FALCON 9 launch vehicle from the Air Force Western Test Range (AFWTR). Payload-class satellites include a variety of spacecraft equipped with specific instruments for various scientific and technological missions. These include communications satellites like Starlink; space stations such as the ISS; scientific satellites like the Hubble; Earth observation satellites from companies like Planet Labs, Umbra, and HawkEye 360; GPS; miniature CubeSats for education and research; and military/defense satellites.

Loading next visibility...
Identifier
65806, 2025-218R
Orbit
SSO
Country
Flag of USUS
Related business
Manufacturer
SpaceX/Seattle
Mission
Operational Commercial Communications
Bus & Motor
STARLINK V2MO, Unknown motor
Mass
575 kg wet, ~530 kg dry
Launch date (UTC)
2025-09-26 (2 months ago)
Launch vehicle
FALCON 9
Launch site
Air Force Western Test Range (AFWTR)
Object type
Payload
Rocket body
Debris
Shape & HBR
Box + 2 Pan, 17.7 m
Radar Cross Section
36.964 m²

Expand to show TLE details & history
Last TLE update: 15 hours ago

TLE from 15 hours ago
0 STARLINK-35047
1 65806U 25218R   25340.60861056  .00012306  00000-0  85529-3 0  9993
2 65806  97.6030 201.2044 0002499  87.0327 273.1185 15.05661563 10967
Epoch: 2025-12-06T14:36Z
TLE epoch observation values (Epoch: 2025-12-06T14:36:23.952Z)
Latitude
-0.00009°
Longitude
-93.52929°
Altitude
552.447 km
Speed
7.586 km/s
True Right ascension
13h 24m 49s
True Declination
0° 00' 00"
Sunlit
Object was in daylight at epoch
Visualization orbit readout
Latitude
Unknown
Longitude
Unknown
Altitude
Unknown
Speed
Unknown
Apparent Right ascension
Unknown
Apparent Declination
Unknown
Sunlit
N/A
Visualization observer readout
Local Sidereal Time
03:28:55
Azimuth
Unknown
Elevation
Unknown
Doppler factor
Unknown
Orbital elements
Apogee altitude
548.2 km
Perigee altitude
544.739 km
Semi-major axis
6,924.606 km
Eccentricity
0.00025
Inclination
97.603°
RAAN
201.2044°
Arg. of periapsis
87.0327°
True anomaly
273.08991°
Mean anomaly
273.1185°
Eccentric anomaly
273.1042°
Mean motion
3.76661 °/min
Orbital period
95.58 mins
BSTAR
0.00085529
Loading maneuver chart data...
Computing Atmospheric mass density...
Loading historical data...
Loading historical data...
Loading historical data...
Loading historical data...
Loading historical data...
Loading historical data...
Loading historical data...

Documentation

Showing up to 5 results
|